GEFSNE_con_probscp_282.txt.gz
Probability
11 11 9 8 7 7 7 9 9 8 7 7 6 4 2 1 1 1 1 0 0 0 0 0 0 0 0 0 0 0 0 0 0 0 0 1 2 2
10 8 7 8 8 7 7 9 11 11 10 9 6 4 2 2 3 4 3 2 0 0 0 0 0 0 0 0 0 0 0 1 1 1 0 0 1 1
9 8 7 9 11 10 9 11 13 13 12 9 7 5 4 4 6 6 5 3 1 0 0 0 0 0 0 0 0 0 0 1 2 1 0 0 0 0
13 12 11 12 15 15 13 13 14 13 11 9 6 5 5 7 8 8 6 4 3 1 0 0 0 0 0 0 0 0 0 1 1 1 0 0 0 0
18 17 14 15 17 17 15 14 13 12 10 8 6 6 6 9 10 9 7 5 4 2 1 0 0 0 0 0 0 0 0 0 0 0 0 0 0 0
19 17 14 12 13 13 12 13 13 12 10 9 8 9 10 11 11 10 8 7 5 3 2 1 1 1 1 0 0 0 0 0 0 0 0 0 0 0
16 14 10 8 8 8 7 9 12 13 12 13 13 13 14 14 12 10 9 9 7 5 4 4 4 3 2 1 0 0 0 0 0 0 0 0 0 0
13 11 7 5 5 5 4 5 7 10 11 13 15 14 14 15 13 10 9 10 8 7 7 7 7 6 4 2 1 0 0 0 0 0 0 0 0 0
11 9 6 4 5 6 5 3 4 5 7 10 12 13 13 15 13 10 9 10 10 10 10 8 7 7 5 3 1 0 0 0 0 0 0 0 0 0
8 7 5 4 4 6 7 7 7 8 7 7 9 11 12 13 12 11 11 11 10 12 11 10 8 7 6 4 2 0 0 0 0 0 0 0 0 0
5 5 5 5 3 4 7 10 12 12 10 8 8 8 9 10 10 11 12 12 11 11 12 12 10 9 9 8 5 2 0 0 0 0 0 0 0 0
4 4 4 4 3 2 6 11 13 12 11 10 9 8 8 9 9 12 14 14 12 11 13 14 12 11 11 10 7 5 2 1 0 0 0 0 0 0
4 3 3 3 2 1 3 8 9 9 10 11 11 11 12 14 14 15 16 16 14 11 12 14 12 11 10 9 7 6 4 3 1 0 0 0 0 0
4 4 3 2 1 0 1 2 3 5 8 11 12 14 17 18 18 17 17 16 14 11 11 12 12 11 10 7 6 4 4 4 2 1 1 1 1 1
4 3 2 1 0 0 0 0 1 4 8 10 11 13 15 16 16 16 15 14 12 10 10 11 11 10 9 7 5 3 3 3 4 3 3 3 2 2
4 4 2 1 1 1 1 2 3 5 7 9 10 11 12 12 13 13 13 12 11 9 9 10 10 8 7 5 4 4 4 4 5 6 5 4 3 3
4 4 4 3 2 3 4 4 4 4 5 7 8 9 9 10 10 11 12 12 11 10 10 10 9 8 6 5 5 6 6 6 6 6 6 4 3 3
2 3 3 3 3 3 4 4 3 3 3 5 6 8 8 9 9 9 10 11 11 11 11 11 9 7 6 6 7 7 7 7 6 6 5 4 3 2
0 1 1 2 1 2 3 3 3 3 3 4 6 7 7 7 6 6 7 8 9 10 10 10 9 8 7 7 7 6 6 6 5 4 4 3 2 1
0 0 0 0 0 1 2 2 2 1 1 3 4 5 5 4 4 4 4 5 6 7 7 8 8 7 7 7 7 5 3 3 3 4 3 3 2 1
0 0 0 0 0 0 1 1 1 0 0 1 2 3 3 3 3 3 3 3 4 4 4 4 4 4 5 6 6 5 2 1 2 3 3 3 2 1
0 0 0 0 0 0 0 0 0 0 0 0 0 1 1 2 3 3 3 2 2 2 1 1 1 2 4 4 4 3 1 0 0 1 1 2 1 1
0 0 0 0 0 0 0 0 0 0 0 0 0 0 0 1 3 3 2 1 1 0 0 0 1 3 3 3 2 1 1 0 0 0 0 1 1 0

GEFSNE_con_probscp_288.txt.gz
Probability
20 18 15 14 13 13 13 13 12 10 9 11 11 13 15 12 6 6 7 5 3 1 0 0 0 0 0 0 1 1 1 0 0 0 0 0 0 0
20 19 17 16 15 14 14 13 14 13 12 11 12 14 14 10 6 6 8 6 3 1 0 0 0 0 0 0 0 0 0 0 0 0 0 0 0 0
21 20 19 18 17 16 15 14 14 15 14 12 12 15 15 12 9 8 8 7 4 2 0 0 0 0 0 0 0 0 0 0 0 0 0 0 0 0
22 21 20 19 19 18 16 14 13 14 13 11 11 14 16 16 13 11 9 7 6 3 1 0 0 0 0 0 0 0 0 0 0 0 0 0 0 0
22 22 21 20 21 20 18 16 14 13 14 11 10 11 13 15 16 13 10 8 6 4 2 1 0 0 0 0 0 0 0 0 0 0 0 0 0 0
20 20 19 18 18 18 17 16 15 15 15 12 9 8 11 14 14 13 11 10 7 5 3 2 1 1 1 0 0 0 0 0 0 0 0 0 0 0
17 17 16 13 10 9 10 11 12 13 14 13 9 8 10 13 13 12 10 10 9 6 4 3 3 2 2 1 0 0 0 0 0 0 0 0 0 0
14 14 13 9 5 3 3 3 5 8 11 12 10 8 10 12 12 12 10 10 9 9 7 4 3 4 4 2 1 0 0 0 0 0 0 0 0 0
13 13 12 10 6 3 2 3 5 6 6 8 10 9 8 10 12 12 11 11 11 12 10 7 6 6 5 3 2 1 0 0 0 0 0 0 0 0
13 12 12 10 7 4 4 6 8 8 5 5 6 7 5 6 8 10 11 11 12 13 12 11 9 9 6 4 2 1 0 0 0 0 0 0 0 0
13 11 11 9 6 4 4 7 8 8 6 5 4 5 4 3 4 8 11 13 12 12 12 12 11 11 8 5 3 1 0 0 0 0 0 0 0 0
12 10 7 6 3 2 3 5 6 6 7 7 6 6 5 3 3 6 11 13 12 11 11 11 11 11 9 7 5 3 2 1 0 0 0 0 0 0
11 8 5 2 1 1 1 2 4 5 6 7 7 6 5 4 4 7 10 13 12 11 11 11 10 11 10 8 7 5 5 3 2 1 0 0 0 0
6 5 3 1 0 0 0 0 1 2 3 4 4 5 4 5 5 7 10 11 11 11 11 10 10 10 9 8 7 7 8 7 6 4 2 1 1 0
2 2 1 0 0 0 0 0 0 1 2 3 3 4 5 5 6 7 9 11 12 12 11 11 10 10 9 8 7 8 9 10 9 7 5 4 3 2
1 1 1 1 1 1 1 1 1 3 3 4 3 3 4 5 6 6 7 9 11 12 12 12 11 10 9 8 8 8 8 9 10 9 8 8 7 6
2 2 3 3 3 2 2 2 3 4 5 4 3 3 3 3 4 4 5 6 7 8 9 10 11 10 8 8 8 8 8 8 9 9 8 8 8 8
4 5 5 5 4 4 4 3 3 3 3 3 2 1 1 1 2 3 4 4 4 5 6 7 8 8 7 6 6 7 7 8 8 8 8 7 7 7
4 6 8 6 5 5 4 4 3 2 3 3 2 1 1 1 2 3 3 3 3 4 5 5 5 5 5 4 4 5 5 6 7 7 7 6 5 5
2 5 6 5 4 4 4 4 4 4 4 4 3 2 2 2 3 3 3 3 3 3 3 3 3 3 3 3 3 4 3 3 4 5 6 5 4 4
1 1 2 2 3 3 4 5 5 4 4 3 3 2 2 2 2 3 2 1 1 2 1 0 1 1 2 3 3 2 2 1 2 3 3 4 3 3
0 0 0 1 2 4 5 5 4 2 2 2 2 1 1 1 2 2 2 1 1 1 0 0 1 2 2 1 1 1 1 1 1 1 1 2 2 2
0 0 0 0 2 4 4 3 2 1 1 2 2 2 1 2 2 3 3 2 2 1 0 0 1 2 1 0 0 0 0 1 0 0 0 1 1 1

GEFSNE_con_probscp_294.txt.gz
Probability
12 10 8 8 9 10 10 10 9 7 4 2 1 1 0 0 0 0 0 0 0 0 0 0 0 0 0 0 0 0 0 0 0 0 0 0 0 0
11 10 8 8 9 9 9 9 9 8 6 3 1 0 0 0 0 0 0 0 0 0 0 0 0 0 0 0 0 0 0 0 0 0 0 0 0 0
10 9 7 7 7 7 7 7 7 7 6 3 2 0 0 0 0 0 0 0 0 0 0 0 0 0 0 0 0 0 0 0 0 0 0 0 0 0
8 7 6 5 5 6 5 4 4 4 4 3 1 0 0 0 0 0 0 0 0 0 0 0 0 0 0 0 0 0 0 0 0 0 0 0 0 0
7 6 5 4 4 4 4 3 3 3 3 2 1 0 0 0 0 0 0 0 0 1 0 0 0 0 0 0 0 0 0 0 0 0 0 0 0 0
6 5 4 4 4 4 3 3 3 3 3 2 1 0 0 0 0 0 0 0 0 0 0 0 0 0 0 0 0 0 0 0 0 0 0 0 0 0
5 4 4 4 4 4 4 3 3 3 3 2 1 0 0 0 0 0 0 0 0 0 0 0 0 0 0 0 0 0 0 0 0 0 0 0 0 0
2 2 3 3 3 3 3 3 3 3 3 2 1 0 0 0 0 0 0 0 1 1 1 0 0 0 1 1 1 0 0 0 0 0 0 0 0 0
0 1 1 1 1 1 3 4 4 3 3 2 1 0 0 0 0 0 1 1 2 2 2 2 2 2 2 2 2 1 0 0 0 0 0 0 0 0
0 0 0 1 1 1 3 5 5 4 3 2 1 0 0 0 0 1 2 3 3 3 3 3 3 3 3 3 3 2 1 0 0 0 0 0 0 0
0 0 0 0 1 1 3 4 5 4 3 1 0 0 0 0 0 1 2 3 4 3 3 3 3 3 3 3 2 2 1 0 0 0 0 0 0 0
0 0 0 0 0 1 1 2 3 3 2 1 0 0 0 0 0 0 1 3 4 4 3 3 3 3 3 2 1 1 0 0 0 0 0 0 0 0
0 0 0 0 0 0 0 0 1 1 1 0 0 0 0 0 0 1 1 3 4 3 3 3 3 3 3 3 2 1 0 0 0 0 0 1 1 0
0 0 0 0 0 0 0 0 0 0 0 0 0 0 0 1 1 2 3 3 3 3 3 3 3 3 3 3 3 2 0 0 0 0 0 1 1 1
0 0 0 0 0 0 0 0 0 0 0 0 0 1 1 2 3 3 3 2 2 2 2 2 2 2 3 3 2 1 0 0 0 0 0 1 1 1
0 0 0 0 0 0 0 0 0 0 0 0 1 2 3 3 3 2 1 1 1 1 1 1 1 1 1 2 1 0 0 0 0 0 0 0 0 1
0 0 0 0 0 0 0 0 1 1 1 1 2 2 2 2 1 1 0 0 0 0 0 0 0 0 0 0 0 0 0 0 0 0 0 1 0 0
0 0 0 0 0 0 1 1 2 2 2 2 2 1 1 1 0 0 0 0 0 0 0 0 0 0 0 0 0 0 0 0 0 0 0 1 1 1
0 0 1 1 1 1 2 2 2 2 1 1 1 0 0 0 0 0 0 0 0 0 0 0 0 0 0 0 0 0 0 0 0 0 0 1 2 2
0 0 1 2 2 2 2 1 1 1 0 0 0 0 0 0 0 0 0 0 0 0 0 0 0 0 0 0 0 0 0 0 0 0 0 1 2 3
0 0 1 1 1 1 1 0 0 0 0 0 0 0 0 0 0 0 0 0 0 0 0 0 0 0 0 0 0 0 0 0 0 0 0 0 1 2
0 0 0 0 0 0 0 0 0 0 0 0 0 0 0 0 0 0 0 0 0 0 0 0 0 0 0 0 0 0 0 0 0 0 0 0 0 1
0 0 0 0 0 0 0 0 0 0 0 0 0 0 0 0 0 0 0 0 0 0 0 0 0 0 0 0 0 0 0 0 0 0 0 0 0 0

GEFSNE_con_probscp_300.txt.gz
Probability
10 10 10 10 9 8 7 8 7 5 4 4 4 4 3 3 3 3 2 1 0 0 1 2 3 2 1 0 0 0 0 0 0 0 0 1 2 3
10 10 9 9 8 7 7 7 7 6 4 4 4 4 4 3 3 3 3 1 0 0 0 1 2 2 1 0 0 0 0 0 0 0 0 0 1 2
10 9 9 8 7 7 6 6 6 5 5 4 5 6 5 4 3 3 3 2 1 0 0 0 1 1 0 0 0 0 0 0 0 0 0 0 0 1
8 7 7 6 6 6 6 5 5 4 4 4 5 6 6 5 4 3 3 2 1 0 0 0 0 0 0 0 0 0 0 0 0 0 0 0 0 0
4 4 4 5 4 4 5 5 4 4 3 3 4 5 6 5 3 2 2 1 1 0 0 0 0 0 0 0 0 0 0 0 0 0 0 0 0 0
2 2 2 2 2 2 4 4 4 3 3 3 3 4 4 4 3 1 1 0 0 0 0 0 0 1 1 1 1 0 0 0 0 0 0 0 0 0
1 1 1 1 1 1 2 2 2 2 2 2 3 3 3 3 3 2 1 0 0 0 0 0 0 1 2 2 2 1 0 0 0 0 0 0 0 0
0 0 0 0 1 1 1 1 1 1 0 1 2 3 3 3 3 3 2 1 0 0 0 0 0 1 2 2 2 1 0 0 0 0 0 0 0 0
0 0 0 0 1 2 1 0 0 0 0 0 1 2 3 3 3 3 3 1 0 0 0 0 0 1 1 1 1 0 0 0 0 0 0 0 0 0
0 0 0 0 1 3 2 1 0 0 0 0 0 1 1 2 3 3 3 2 0 0 1 1 2 2 2 2 1 0 0 0 0 0 0 0 0 0
0 0 0 0 0 1 2 1 0 0 0 0 0 0 0 1 1 2 2 1 0 1 2 3 3 3 3 3 2 1 1 1 0 0 0 0 0 0
0 0 0 0 0 0 0 0 0 0 0 0 0 0 0 0 0 1 1 1 1 2 3 3 3 3 3 3 3 2 2 1 1 0 0 0 0 0
1 0 0 0 0 0 0 0 0 0 0 0 0 0 0 0 0 0 0 0 1 2 3 3 3 3 3 3 2 2 1 1 1 1 0 0 0 0
1 0 0 0 0 0 0 0 0 0 0 0 0 0 0 0 0 0 1 1 1 3 3 3 3 3 2 1 1 1 0 0 0 1 0 0 0 0
1 0 0 0 0 0 0 0 0 0 0 0 0 0 0 0 0 1 2 2 3 3 3 2 2 2 1 0 0 0 0 0 0 1 1 0 0 0
0 0 0 0 0 0 0 0 0 0 0 0 0 0 0 0 1 2 3 3 3 2 1 1 1 1 0 0 0 0 0 0 0 1 1 1 0 0
0 0 1 1 1 1 1 0 0 0 0 0 0 0 0 1 1 3 3 2 1 1 0 0 0 0 0 0 0 0 0 0 0 1 2 1 0 1
0 0 1 2 2 2 1 0 0 1 1 1 1 1 1 1 2 2 2 1 0 0 0 0 0 0 0 0 0 0 0 0 0 1 2 1 1 1
0 1 2 3 2 1 1 0 0 1 2 2 2 2 1 1 1 1 1 0 0 0 0 0 0 0 0 0 0 0 0 0 0 0 1 1 0 1
1 2 3 3 2 1 1 0 0 1 1 1 1 1 1 0 0 0 0 0 0 0 0 0 0 0 1 1 0 0 0 0 0 0 0 0 0 0
3 3 3 3 3 2 2 1 0 0 0 0 0 0 0 0 0 0 0 0 0 0 0 0 0 0 1 1 0 0 0 0 0 0 0 0 0 0
3 3 3 3 3 3 3 2 1 0 0 0 0 0 0 0 0 0 0 0 0 0 0 0 0 0 1 1 0 0 0 0 0 0 0 0 0 0
3 3 3 3 3 3 3 2 1 0 0 0 0 0 0 0 0 0 0 0 0 0 0 0 0 0 0 0 0 0 0 0 0 0 0 0 0 0

GEFSNE_con_probscp_306.txt.gz
Probability
14 15 15 14 13 11 10 10 10 11 10 10 9 7 6 6 7 7 7 5 2 0 0 0 1 2 3 3 3 3 2 1 0 0 0 0 0 0
12 13 12 12 12 11 11 11 11 11 10 9 8 7 6 6 7 8 8 6 3 1 0 0 0 1 2 2 2 2 1 0 0 0 0 0 0 0
10 10 9 9 10 12 13 15 14 12 9 8 7 6 5 5 7 9 9 8 6 2 0 0 0 0 1 1 1 1 0 0 0 0 0 0 0 0
7 7 6 7 8 10 13 15 15 12 8 6 4 4 4 4 5 7 8 9 7 3 0 0 0 0 0 0 0 0 0 0 0 0 0 0 0 0
5 5 5 6 7 9 11 13 12 9 7 4 2 2 2 2 3 3 5 8 8 5 2 0 0 0 0 0 0 0 0 0 0 0 0 0 0 0
4 4 6 6 6 7 8 8 8 7 6 3 1 0 0 1 1 1 3 6 8 6 5 2 1 1 0 0 0 0 0 0 0 0 0 0 0 0
6 6 6 5 4 3 3 4 5 5 5 3 1 0 0 0 0 0 1 4 6 7 7 6 4 3 2 1 1 1 0 0 0 0 0 0 0 0
9 8 6 5 3 1 0 1 1 2 3 3 2 1 0 0 0 0 1 3 4 5 6 7 8 6 4 3 3 2 1 0 0 0 0 0 0 0
11 10 8 6 5 3 2 1 1 1 1 2 2 1 0 1 1 1 2 2 3 4 5 7 9 8 5 4 3 3 2 1 0 0 0 0 0 0
12 11 10 8 5 5 5 4 3 2 1 1 1 1 0 1 2 2 1 1 1 3 5 8 8 7 4 3 3 3 3 1 0 0 0 0 0 0
11 10 9 7 4 4 5 5 5 5 2 1 1 0 0 1 1 1 1 1 1 3 6 8 7 5 3 3 3 3 3 2 1 0 0 0 0 0
11 9 6 4 2 2 3 5 6 6 5 3 2 1 1 1 1 1 2 3 4 5 6 6 5 4 3 3 3 3 3 3 1 0 0 0 0 0
11 10 6 3 1 1 3 5 5 5 5 4 4 4 5 5 4 5 6 8 8 8 6 5 4 3 3 3 3 3 3 3 2 1 0 0 0 0
13 12 9 4 1 0 2 3 3 3 4 4 4 6 8 8 8 8 9 11 12 10 8 7 5 3 3 3 3 4 3 2 1 1 1 1 0 0
13 11 8 3 1 1 1 1 1 2 3 4 5 7 8 9 10 9 10 12 13 10 8 8 8 6 5 4 5 5 3 1 0 1 1 1 1 1
12 10 7 5 4 5 5 4 4 4 4 5 7 8 9 9 10 10 10 11 11 9 8 9 10 9 8 8 7 6 3 1 0 0 1 1 2 3
11 11 10 10 10 11 11 10 9 6 6 6 7 8 8 9 9 9 9 9 9 8 8 8 8 8 8 8 8 5 2 1 1 2 1 1 1 2
10 11 12 13 13 13 14 13 11 8 7 7 6 6 6 6 6 6 7 7 7 6 6 7 6 4 3 4 4 3 1 1 4 4 2 0 0 1
11 12 13 13 12 11 11 11 9 8 7 7 5 4 4 4 4 4 4 4 4 4 4 5 5 3 1 1 1 1 1 2 4 4 3 1 1 1
12 13 14 12 10 9 8 8 7 6 6 6 5 4 4 4 4 3 3 3 3 3 3 4 4 3 2 1 0 0 0 1 2 4 4 3 2 1
11 13 14 12 9 8 7 6 6 5 5 6 6 6 6 6 5 4 4 3 3 3 3 3 3 3 2 1 0 0 0 0 1 3 4 3 2 1
10 12 14 12 10 8 6 5 5 5 5 5 6 6 6 6 6 6 5 4 3 3 3 3 3 3 2 1 0 0 0 0 0 1 1 1 1 0
9 10 12 12 9 7 5 4 4 4 4 4 5 6 6 6 6 6 6 4 3 3 3 3 3 3 2 1 0 0 0 0 0 0 0 0 0 0

GEFSNE_con_probscp_312.txt.gz
Probability
16 13 12 13 12 10 9 9 9 8 7 8 10 11 12 9 6 6 5 3 1 0 0 1 2 4 6 6 5 3 2 2 2 1 0 0 0 0
18 15 13 12 10 9 9 9 8 7 7 7 8 9 9 7 6 6 5 2 1 0 0 0 1 3 4 5 5 3 1 1 1 0 0 0 0 0
22 20 16 11 8 9 9 9 7 6 6 5 6 8 7 5 5 6 4 1 1 1 0 0 0 1 2 3 3 2 0 0 0 0 0 0 0 0
24 23 19 14 10 10 10 9 8 7 6 6 6 7 8 6 5 4 3 2 2 1 0 0 0 0 1 1 1 0 0 0 0 0 0 0 0 0
22 21 20 17 14 12 11 10 9 9 9 8 8 8 8 7 5 4 3 4 3 2 1 0 0 0 0 0 0 0 0 0 0 0 0 0 0 0
17 19 19 17 13 11 10 10 9 9 10 10 8 8 9 8 6 4 4 5 5 3 1 0 0 0 0 0 0 0 0 0 0 0 0 0 0 0
17 17 15 12 9 7 7 7 7 8 9 9 8 8 9 8 5 2 2 3 3 2 1 0 1 1 1 1 1 0 0 0 0 0 0 0 0 0
19 18 14 9 6 5 4 3 3 5 6 7 8 8 8 8 6 3 2 2 1 1 0 0 1 2 2 2 2 1 0 0 0 0 0 0 0 0
23 21 18 14 10 7 5 3 3 3 4 6 8 9 9 8 7 6 6 4 3 2 1 0 1 1 1 2 2 1 0 0 0 0 0 0 0 0
26 25 24 21 16 12 9 7 6 4 3 4 5 7 7 6 6 6 7 6 7 6 4 2 1 1 1 1 1 0 0 0 0 0 0 0 0 0
28 27 25 22 17 13 12 12 9 7 5 3 3 3 3 3 3 4 5 7 7 7 6 5 3 2 1 2 2 1 1 1 0 0 0 0 0 0
28 26 22 17 11 9 12 13 12 9 8 6 4 4 4 5 5 5 6 7 7 7 8 7 6 5 4 4 3 3 2 2 1 1 0 0 0 0
24 22 17 9 4 4 8 12 12 10 9 8 8 8 9 10 11 10 9 9 9 9 9 9 8 7 7 6 4 4 3 3 3 2 1 0 0 0
19 17 11 4 1 1 4 7 8 8 9 9 9 10 11 13 13 12 12 11 11 10 10 9 8 8 9 8 6 6 5 4 3 2 1 0 0 0
14 11 5 1 0 0 1 3 5 7 8 9 9 10 11 12 12 11 10 10 11 11 10 9 8 8 8 8 7 7 6 4 2 1 0 0 0 0
8 6 3 1 1 2 3 3 5 7 9 10 10 10 11 12 11 9 8 7 8 8 7 7 7 6 5 5 5 5 4 3 1 0 0 0 1 1
7 7 5 4 4 5 7 8 9 9 10 10 10 10 10 10 9 8 6 5 5 4 5 5 5 4 3 3 3 3 3 3 1 0 0 0 0 0
8 9 8 7 7 8 9 10 11 11 10 10 10 9 9 8 8 7 6 4 3 3 3 3 3 3 3 3 3 3 3 4 3 1 1 0 0 0
9 9 9 9 8 9 9 9 9 9 9 9 9 9 9 8 7 6 5 4 3 3 3 3 3 3 3 3 3 2 2 3 3 3 2 1 0 0
10 10 10 9 9 8 8 6 6 6 7 8 9 9 9 7 7 6 4 3 3 3 3 3 3 3 3 3 3 1 1 2 3 3 3 2 0 0
9 9 9 9 9 8 7 6 5 4 5 7 8 8 7 7 7 5 4 3 3 3 3 3 3 3 3 3 3 2 1 1 1 2 2 1 0 0
7 7 8 9 9 9 8 8 6 5 5 6 5 4 4 6 6 5 3 3 3 3 3 3 3 3 3 3 3 2 1 0 0 1 1 0 0 0
6 6 7 9 10 10 10 10 8 6 6 5 4 2 2 5 5 4 3 3 3 3 3 3 3 3 3 3 3 2 1 0 0 0 0 0 0 0

GEFSNE_con_probscp_318.txt.gz
Probability
6 6 4 2 2 4 4 3 3 3 3 3 3 3 3 2 1 0 0 0 0 0 0 0 0 0 0 0 0 0 1 2 2 1 0 0 0 0
7 6 4 3 4 4 4 3 3 3 3 3 3 3 3 2 1 0 0 0 0 0 0 0 0 0 0 0 0 0 0 1 2 1 0 0 0 0
7 6 4 5 6 5 4 3 3 3 3 3 2 2 2 2 1 0 0 0 0 0 0 0 0 0 0 0 0 0 0 1 2 1 0 0 0 0
7 7 6 6 7 7 5 4 3 3 2 1 1 0 1 1 0 0 0 0 0 0 0 0 0 0 0 0 0 0 0 1 2 1 0 0 0 0
7 8 8 7 7 8 7 5 4 3 1 0 0 0 0 0 0 0 0 0 0 0 0 0 0 0 0 0 0 0 0 0 1 1 0 0 0 0
7 8 7 6 6 8 8 6 5 3 1 0 0 0 0 0 0 0 0 0 0 0 0 0 0 0 0 0 0 0 0 0 0 0 0 0 0 0
6 6 6 5 4 5 6 5 4 3 2 1 1 1 0 0 0 0 0 0 0 0 0 0 0 0 0 0 0 0 0 0 0 0 0 0 0 0
6 5 5 5 4 3 3 3 3 3 3 3 2 2 1 1 0 0 0 0 0 0 0 0 0 0 0 0 0 0 0 0 0 0 0 0 0 0
6 4 4 4 4 2 1 1 1 2 3 3 3 3 3 2 1 1 0 0 0 0 0 0 0 0 0 0 0 0 0 0 0 0 0 0 0 0
4 4 3 3 3 1 0 0 0 2 3 3 3 3 3 3 3 2 1 0 0 0 0 0 0 0 0 0 0 0 0 0 0 0 0 0 0 0
2 2 2 2 2 1 0 0 0 1 2 1 2 2 2 2 3 3 2 1 1 0 0 0 0 0 0 0 0 0 0 0 0 0 0 0 0 0
1 1 1 1 1 0 0 0 0 0 0 1 1 2 2 2 2 3 3 3 2 2 1 0 0 0 0 0 0 0 0 0 0 0 0 0 0 0
0 0 0 0 0 0 0 0 0 0 0 0 1 2 2 2 2 3 3 3 3 3 2 1 1 1 0 0 0 0 0 0 0 0 0 0 0 0
1 1 0 0 0 0 0 0 0 0 1 1 1 2 2 2 3 3 3 3 3 4 3 3 2 2 1 1 0 0 0 0 0 0 0 0 0 0
2 1 0 0 0 0 0 0 0 1 2 2 3 3 3 2 3 3 3 3 3 3 3 3 3 3 3 2 1 0 0 0 0 0 0 0 0 0
1 1 0 0 0 0 0 0 0 1 2 3 3 3 3 3 2 2 2 3 3 3 3 3 3 3 3 3 2 1 0 0 0 0 0 0 0 0
0 0 0 0 0 0 0 0 0 0 2 3 3 3 3 2 1 1 1 1 2 2 1 1 2 3 3 3 3 2 1 0 0 0 0 0 0 0
0 1 1 0 1 1 0 0 0 1 2 3 3 3 3 1 0 0 0 0 1 1 0 0 2 3 3 3 3 3 2 1 1 0 0 0 0 0
2 3 3 2 2 2 1 1 1 2 3 3 3 3 3 1 0 0 0 0 0 0 0 0 1 2 2 2 3 3 3 2 2 1 1 0 0 0
5 5 5 4 3 3 3 2 3 3 3 3 3 3 3 2 1 0 0 0 0 0 0 0 1 1 1 1 1 2 2 2 2 2 2 1 0 0
6 6 6 5 4 3 3 3 3 3 3 3 3 3 3 2 1 0 0 0 0 0 0 0 0 0 0 0 0 0 0 1 1 2 2 1 0 0
7 7 7 6 5 4 3 3 3 3 3 3 3 3 3 2 1 0 0 0 0 0 0 0 0 0 0 0 0 0 0 0 0 1 1 1 0 0
9 8 7 6 6 5 4 3 3 3 3 3 3 3 3 2 1 0 0 0 0 0 0 0 0 0 0 0 0 0 0 0 0 0 0 0 0 0